User: anonymous   Login
Location: Unspecified
(0.0000°N, 0.0000°E)
Time: 22:05:20
(UTC+00:00)
Language:

Landsat 3 - Orbit

View from above orbital plane
View from above orbital plane
View from above satellite
View from above satellite

Ground track
Ground track

The orbit data is extracted from the following two-line orbital elements,

1 10702U 78026A   18291.03514421  .00000122  00000-0  11811-3 0  9994
2 10702  98.7541 301.5016 0013748 308.4022 108.9328 13.96667837 70996
Epoch (UTC): 18 October 2018 00:50:36
Eccentricity: 0.0013748
inclination: 98.7541°
perigee height: 895 km
apogee height: 915 km
right ascension of ascending node: 301.5016°
argument of perigee: 308.4022°
revolutions per day: 13.96667837
mean anomaly at epoch: 108.9328°
orbit number at epoch: 7099

The dashed part of the orbit path shows where the satellite is in the earth's shadow,  

DLR